Mitchell, SD

12:12 AM CDT on August 23, 2017 (GMT -0500)
Mitchell Municipal

Weather History for KMHE - May, 2013

Change the Weather History Date:

Wednesday, May 1, 2013

  Actual Average Record
Temperature  
Mean Temperature 43 °F 55 °F  
Max Temperature 48 °F 67 °F 98 °F (1959)
Min Temperature 37 °F 42 °F 19 °F (1909)
Degree Days  
Heating Degree Days 22 11  
Month to date heating degree days 22 11  
Since 1 July heating degree days 7386 7011  
Cooling Degree Days 0 0  
Month to date cooling degree days 0 0  
Year to date cooling degree days 0 2  
Moisture  
Dew Point 24 °F    
Average Humidity 47    
Maximum Humidity 59    
Minimum Humidity 34    
Precipitation  
Precipitation T in 0.08 in 1.91 in (1972)
Month to date precipitation T 0.08  
Year to date precipitation 5.03 3.88  
Snow  
Snow 0.00 in - T in (2005)
Month to date snowfall 0.0  
Since 1 July snowfall 54.5  
Snow Depth 0.00 in    
Sea Level Pressure  
Sea Level Pressure 30.41 in    
Wind  
Wind Speed 16 mph (North)    
Max Wind Speed 24 mph    
Max Gust Speed 33 mph    
Visibility 10 miles    
Events      
T = Trace of Precipitation, MM = Missing Value Source: NWS Daily Summary

Daily Weather History Graph

Daily Weather History Graph

Search for Another Location

Airport or City:

Trip Planner

Search our weather history database for the weather conditions in past years. The results will help you decide how hot, cold, wet, or windy it might be!

Date:

Astronomy

May. 01, 2013 Rise Set
Actual Time 6:23 AM CDT 8:35 PM CDT
Civil Twilight 5:52 AM CDT 9:06 PM CDT
Nautical Twilight 5:13 AM CDT 9:46 PM CDT
Astronomical Twilight 4:30 AM CDT 10:29 PM CDT
Moon 1:46 AM CDT (5/1) 12:03 PM CDT (5/1)
Length of Visible Light 15h 14m
Length of Day
14h 11m
Waning Gibbous, 59% of the Moon is Illuminated
May 1
Waning Gibbous
May 2
Last Quarter
May 9
New
May 17
First Quarter
May 24
Full

Hourly Weather History & Observations

Time (CDT) Temp. Windchill Dew Point Humidity Pressure Visibility Wind Dir Wind Speed Gust Speed Precip Events Conditions
12:53 AM 46.9 °F - 32.0 °F 56% 30.12 in 10.0 mi North 16.1 mph - 0.00 in   Overcast
1:53 AM 46.9 °F - 28.9 °F 50% 30.15 in 10.0 mi North 16.1 mph - N/A   Overcast
2:53 AM 43.0 °F 34.8 °F 28.9 °F 58% 30.17 in 10.0 mi North 18.4 mph - N/A   Overcast
3:53 AM 42.1 °F 34.2 °F 28.0 °F 58% 30.18 in 10.0 mi North 16.1 mph - 0.00 in   Overcast
4:53 AM 39.9 °F 30.0 °F 26.1 °F 58% 30.24 in 10.0 mi North 21.9 mph 27.6 mph N/A   Overcast
6:53 AM 37.9 °F 31.5 °F 24.1 °F 57% 30.33 in 10.0 mi North 9.2 mph - N/A   Overcast
7:53 AM 37.9 °F 28.5 °F 21.9 °F 53% 30.35 in 10.0 mi North 17.3 mph - N/A   Overcast
8:53 AM 37.0 °F 28.1 °F 23.0 °F 57% 30.38 in 10.0 mi North 15.0 mph - N/A   Overcast
9:53 AM 39.0 °F 29.6 °F 24.1 °F 55% 30.40 in 10.0 mi North 18.4 mph - N/A   Mostly Cloudy
10:53 AM 39.0 °F 29.3 °F 21.9 °F 50% 30.42 in 10.0 mi North 19.6 mph - N/A   Mostly Cloudy
11:53 AM 39.9 °F 31.4 °F 21.9 °F 49% 30.44 in 10.0 mi North 16.1 mph - N/A   Overcast
12:53 PM 39.9 °F 30.2 °F 21.9 °F 49% 30.44 in 10.0 mi North 20.7 mph - N/A   Overcast
1:53 PM 44.1 °F 36.2 °F 23.0 °F 43% 30.45 in 10.0 mi North 18.4 mph 26.5 mph N/A   Partly Cloudy
2:53 PM 44.1 °F 35.7 °F 21.0 °F 40% 30.47 in 10.0 mi North 20.7 mph 25.3 mph N/A   Mostly Cloudy
3:53 PM 44.1 °F 37.1 °F 21.9 °F 42% 30.48 in 10.0 mi North 15.0 mph - N/A   Overcast
4:53 PM 46.0 °F 38.8 °F 21.9 °F 39% 30.49 in 10.0 mi North 18.4 mph - N/A   Overcast
5:53 PM 48.0 °F - 21.9 °F 36% 30.51 in 10.0 mi North 20.7 mph 25.3 mph N/A   Mostly Cloudy
6:53 PM 46.9 °F - 21.0 °F 36% 30.53 in 10.0 mi North 16.1 mph 24.2 mph N/A   Scattered Clouds
7:53 PM 45.0 °F 38.2 °F 21.9 °F 40% 30.53 in 10.0 mi NNE 15.0 mph 23.0 mph N/A   Scattered Clouds
8:53 PM 43.0 °F 37.2 °F 24.1 °F 47% 30.54 in 10.0 mi NNE 10.4 mph - N/A   Scattered Clouds
9:53 PM 41.0 °F 34.7 °F 25.0 °F 53% 30.57 in 10.0 mi NNE 10.4 mph - N/A   Clear
10:53 PM 39.9 °F 33.4 °F 26.1 °F 58% 30.58 in 10.0 mi North 10.4 mph - N/A   Clear
11:53 PM 39.9 °F 32.9 °F 26.1 °F 58% 30.59 in 10.0 mi North 11.5 mph - N/A   Clear